Wind_Speed
15 15 15 15 14 13 14 16 16 16 15 15 14 14 13 12 11 10 10 9 8 7 7 8 9 8 8 8 7 7 7 7 7 7 6 5 5 5 4 4 3 3
17 16 17 17 17 15 14 15 16 16 16 15 14 14 14 13 13 12 10 10 8 7 6 7 8 8 7 7 7 7 7 7 7 7 6 5 5 5 5 4 4 4
19 18 19 17 17 17 15 14 14 15 14 14 14 14 14 13 13 12 11 11 9 8 7 7 7 7 7 6 7 7 7 7 7 7 7 7 6 6 6 6 5 5
21 21 20 17 17 16 15 13 13 13 12 12 12 12 13 13 12 11 11 10 9 8 8 7 6 6 6 6 6 6 6 7 7 7 7 6 6 6 7 6 6 5
25 23 20 17 17 16 15 14 12 11 11 10 9 9 10 10 10 10 9 9 8 7 6 6 5 4 4 5 5 5 5 5 6 6 6 5 4 5 6 5 5 5
28 25 20 18 18 17 16 14 12 11 11 10 9 8 7 7 7 6 6 6 7 6 5 4 3 3 2 2 3 2 2 2 3 3 3 3 2 2 3 3 2 2
30 26 21 21 21 19 17 15 14 13 12 11 9 8 6 5 5 4 4 4 5 6 6 5 4 3 2 1 1 1 1 1 1 1 1 1 2 2 1 1 1 0
29 26 23 22 22 22 21 19 19 17 15 13 11 10 8 6 5 4 4 4 4 4 4 4 5 4 4 3 3 4 4 4 4 3 3 3 2 3 3 2 2 2
28 26 24 22 23 24 23 23 23 20 18 16 14 12 11 10 9 8 7 7 6 6 6 5 5 4 4 4 4 4 5 5 6 6 6 5 5 4 4 4 4 4
28 27 26 24 25 25 23 24 25 22 20 19 16 15 14 13 13 12 11 10 9 9 9 8 8 8 7 7 6 5 5 5 5 6 6 6 5 6 6 6 5 5
26 26 27 27 25 23 22 26 27 24 21 19 16 15 15 15 15 14 13 12 12 12 11 11 10 11 11 11 10 9 8 8 7 7 7 6 6 6 7 7 7 6
24 26 27 27 25 22 22 24 25 23 20 19 17 17 17 17 16 15 14 14 13 14 14 13 13 13 14 14 13 13 12 12 12 11 11 10 9 9 9 9 8 8
20 24 25 24 23 21 20 20 20 19 18 19 19 19 19 19 19 18 16 15 15 15 15 15 15 15 15 16 17 16 16 16 16 15 14 14 13 12 11 11 11 10
16 19 20 21 21 20 20 20 19 18 19 20 21 21 21 21 21 19 16 16 16 18 19 19 19 18 18 18 19 19 19 19 19 19 18 17 16 16 15 14 14 13
15 16 17 18 19 19 18 17 15 15 16 17 18 19 19 17 16 14 13 14 16 18 19 20 21 21 21 21 22 21 21 21 20 20 20 19 18 18 18 18 17 17
12 12 12 12 14 14 13 12 12 13 12 11 11 11 11 11 11 11 12 12 13 14 15 17 18 20 21 21 22 23 24 23 22 22 22 22 21 20 21 21 21 20
10 9 9 8 9 9 8 8 8 8 7 7 7 7 7 8 9 9 9 9 9 10 11 13 15 16 17 18 18 20 22 24 24 24 24 24 24 24 23 23 24 24
10 9 9 8 8 7 7 7 7 7 7 7 8 8 8 8 8 8 8 8 9 9 9 9 11 12 13 14 14 15 17 19 21 22 23 24 26 27 26 26 26 26
9 9 9 9 8 8 8 8 8 8 8 8 9 9 9 10 10 9 9 9 9 10 9 9 10 11 12 13 13 14 15 17 18 19 20 21 23 26 27 27 27 28
8 9 9 9 9 9 9 9 9 9 9 9 10 10 10 11 11 11 11 11 11 11 11 11 12 12 13 13 14 14 14 15 16 17 18 19 21 23 25 26 27 28
9 10 10 10 9 10 11 11 11 12 13 13 14 14 13 13 13 13 12 12 12 11 11 12 14 14 14 14 15 15 15 16 15 16 17 18 19 21 23 25 27 26
9 10 11 11 11 12 12 12 12 11 11 12 12 13 13 14 14 14 14 13 12 12 12 13 15 16 16 15 15 16 17 16 15 15 14 14 15 17 21 25 26 25
8 9 11 12 11 11 11 10 9 8 8 7 7 8 9 10 12 13 13 13 12 13 14 15 17 17 17 16 15 15 15 15 14 12 11 11 12 16 20 23 23 22
10 10 11 11 11 11 11 10 8 8 8 9 9 8 8 8 10 12 13 14 13 14 15 16 16 17 17 16 15 15 14 13 11 10 10 12 14 17 20 21 20 18
9 10 11 12 13 13 12 11 11 12 13 13 12 11 10 10 10 11 13 15 15 15 16 16 17 17 17 17 16 16 15 12 10 9 10 14 17 18 20 20 19 18
10 11 12 13 13 13 13 13 14 15 16 15 14 14 15 15 14 13 13 15 16 17 17 17 18 18 18 17 16 16 15 11 9 10 11 14 17 18 20 20 20 20
Wind_Direction
189 204 217 211 193 176 162 156 149 142 138 132 126 123 123 126 130 134 133 131 129 123 117 113 114 116 112 106 100 96 96 102 106 104 105 109 101 99 104 104 95 96
193 204 217 215 203 191 175 164 156 149 146 141 135 128 125 123 124 126 127 126 125 121 109 102 106 108 106 101 95 92 91 93 96 97 100 97 88 88 88 83 77 78
202 206 213 214 209 201 187 174 166 159 154 152 147 138 131 128 125 123 123 121 117 112 104 94 88 90 94 93 89 88 87 85 89 93 93 90 84 84 84 84 81 76
210 211 210 213 215 211 198 185 178 174 171 165 158 151 142 137 132 128 125 123 120 114 106 96 85 80 83 85 83 83 84 86 89 87 83 82 76 75 79 80 78 75
214 212 205 208 217 218 206 194 190 189 189 185 178 168 156 147 142 137 132 127 123 117 108 100 92 78 68 70 76 74 70 73 84 85 80 80 75 70 73 73 69 66
213 211 204 205 212 216 210 200 199 200 201 207 205 198 182 165 157 149 145 143 140 140 136 124 115 98 63 45 54 52 47 56 82 99 97 97 102 87 74 77 71 51
211 210 204 203 207 212 210 202 203 206 208 214 215 218 219 204 186 170 166 174 175 174 172 172 176 173 180 222 286 301 301 306 290 184 170 183 173 168 157 160 192 178
212 212 207 206 209 212 210 206 205 204 206 211 213 216 220 221 221 212 203 205 210 216 212 204 204 200 203 220 235 248 249 252 256 251 251 256 234 211 227 257 265 239
212 209 207 208 212 213 211 208 206 203 205 210 211 210 212 217 226 231 231 228 229 238 246 250 245 236 236 243 247 247 243 243 249 255 257 259 257 248 247 264 283 283
213 207 204 207 212 214 210 207 206 207 209 212 214 214 217 221 226 233 240 246 251 250 250 256 260 263 265 262 261 257 249 246 250 260 263 262 265 268 265 263 268 275
212 206 203 205 207 206 206 207 208 208 208 213 220 225 230 233 234 240 247 257 264 262 257 259 264 269 272 271 272 267 258 255 257 261 269 272 276 282 282 277 271 267
208 206 207 211 212 210 213 214 210 207 208 214 224 232 235 237 240 247 254 259 262 259 257 258 261 267 270 272 273 270 265 263 260 259 264 267 270 278 285 288 288 286
206 208 212 219 221 219 224 227 222 218 218 219 222 226 229 233 241 249 255 258 258 255 254 253 253 259 265 270 271 270 269 267 264 263 264 265 265 267 270 276 283 287
206 211 218 224 225 226 234 240 238 236 234 233 234 234 236 240 246 251 256 258 257 256 259 259 256 254 256 262 267 268 268 267 266 266 267 267 265 262 261 262 267 274
221 227 230 231 232 235 241 245 244 241 241 242 242 243 245 248 251 255 258 258 257 258 262 264 262 260 258 261 265 268 267 266 265 266 267 266 262 259 260 261 264 271
222 225 225 226 226 230 235 238 239 240 240 240 239 241 245 248 252 255 255 258 260 260 261 262 262 262 262 263 263 264 265 266 266 266 267 266 261 255 255 259 264 269
200 199 201 205 207 211 215 214 214 217 220 221 223 224 229 235 242 247 250 255 259 262 265 264 262 261 261 260 258 258 261 263 264 265 266 267 265 258 254 256 260 262
186 184 183 183 185 187 185 183 184 189 194 203 210 213 218 228 237 246 253 255 257 264 270 271 268 265 262 261 258 258 261 262 264 265 266 268 266 261 257 256 255 255
183 182 182 186 190 191 193 196 199 204 207 212 217 222 229 238 246 254 259 262 264 270 278 283 280 271 266 266 265 264 265 267 267 267 267 267 264 261 259 256 251 250
193 194 197 202 203 202 205 207 208 215 223 227 231 235 239 245 251 255 259 266 272 276 282 288 286 279 274 272 270 270 269 270 270 269 267 266 263 261 258 253 248 247
206 205 207 212 215 217 220 222 226 231 235 238 241 244 246 249 252 256 260 266 273 277 280 282 282 281 281 280 278 277 275 274 274 272 268 265 263 260 252 243 240 239
225 219 218 222 225 227 231 236 237 233 229 230 233 237 241 245 250 255 258 261 266 271 272 274 276 280 283 285 284 281 279 277 275 273 271 269 266 258 248 239 234 235
246 236 230 232 236 241 248 251 246 236 232 234 236 235 238 242 244 248 252 255 260 266 268 270 274 279 285 288 288 285 282 279 277 278 280 278 266 251 241 235 232 235
252 241 234 238 249 260 269 273 273 273 275 276 271 263 258 254 249 245 246 250 256 262 267 270 272 277 284 290 292 292 289 286 284 286 283 270 255 240 230 229 234 239
242 235 235 243 254 262 269 276 283 286 286 285 281 276 277 279 275 262 252 249 252 256 263 269 272 275 280 286 291 294 294 291 285 278 266 251 242 234 231 235 240 241
243 243 243 246 250 256 262 270 277 279 280 282 284 287 290 293 295 288 270 256 252 254 259 266 270 272 275 277 281 286 289 284 273 265 258 249 245 243 243 243 243 242
Height
1532 1534 1536 1538 1538 1538 1537 1537 1537 1538 1538 1539 1539 1540 1541 1541 1541 1541 1541 1541 1541 1541 1541 1541 1542 1542 1542 1542 1542 1542 1542 1542 1542 1542 1542 1541 1542 1542 1542 1542 1542 1542
1531 1532 1534 1536 1537 1538 1538 1538 1538 1538 1539 1540 1540 1541 1541 1541 1541 1542 1542 1542 1541 1541 1541 1542 1542 1542 1542 1542 1542 1543 1542 1542 1542 1542 1542 1542 1542 1542 1543 1543 1543 1543
1530 1532 1532 1534 1535 1536 1537 1537 1538 1539 1540 1541 1541 1541 1541 1541 1542 1542 1542 1542 1542 1542 1542 1542 1542 1542 1543 1543 1543 1543 1543 1543 1543 1543 1543 1543 1543 1543 1543 1543 1543 1544
1529 1531 1532 1533 1534 1535 1536 1536 1537 1539 1541 1541 1542 1542 1542 1542 1542 1542 1542 1542 1542 1542 1542 1542 1542 1542 1543 1543 1543 1544 1544 1544 1544 1544 1544 1544 1544 1544 1544 1544 1544 1544
1528 1529 1530 1531 1533 1534 1535 1536 1537 1538 1540 1541 1542 1542 1542 1542 1542 1542 1542 1542 1542 1542 1542 1542 1542 1542 1542 1543 1543 1544 1544 1544 1544 1544 1544 1544 1544 1545 1545 1545 1545 1545
1525 1527 1529 1530 1531 1533 1534 1535 1536 1537 1539 1540 1541 1542 1542 1541 1542 1542 1542 1541 1541 1541 1541 1541 1542 1542 1542 1542 1543 1543 1544 1544 1544 1544 1545 1545 1545 1545 1545 1545 1545 1545
1524 1526 1527 1528 1529 1531 1532 1533 1535 1536 1537 1539 1540 1541 1541 1541 1541 1541 1541 1541 1540 1540 1540 1540 1540 1541 1541 1541 1542 1542 1543 1543 1544 1544 1544 1545 1545 1545 1545 1545 1545 1546
1524 1526 1527 1527 1528 1529 1531 1532 1533 1534 1535 1537 1538 1538 1539 1539 1539 1539 1539 1539 1539 1540 1540 1539 1539 1540 1540 1540 1540 1541 1541 1541 1542 1543 1543 1544 1544 1545 1545 1545 1545 1545
1522 1525 1527 1528 1528 1529 1530 1531 1531 1532 1533 1534 1534 1535 1536 1537 1537 1537 1537 1537 1537 1538 1538 1539 1539 1539 1539 1539 1539 1539 1539 1540 1540 1541 1541 1542 1543 1543 1544 1544 1544 1544
1520 1524 1527 1528 1528 1530 1530 1530 1530 1530 1530 1531 1532 1533 1533 1534 1534 1535 1535 1536 1536 1535 1536 1537 1538 1538 1538 1538 1538 1538 1538 1538 1539 1539 1540 1540 1541 1542 1542 1542 1543 1543
1520 1524 1526 1526 1527 1529 1530 1529 1528 1527 1528 1529 1530 1530 1531 1532 1532 1533 1533 1534 1534 1534 1535 1535 1535 1536 1536 1536 1537 1537 1537 1537 1537 1538 1539 1539 1540 1540 1541 1541 1542 1542
1519 1522 1523 1524 1525 1527 1529 1528 1527 1526 1526 1527 1529 1529 1530 1531 1532 1532 1532 1532 1532 1533 1533 1533 1533 1533 1534 1534 1535 1535 1535 1536 1536 1536 1537 1538 1538 1539 1539 1540 1540 1540
1517 1519 1521 1522 1524 1526 1528 1528 1527 1525 1525 1526 1528 1528 1529 1530 1530 1531 1531 1530 1530 1531 1531 1531 1531 1531 1532 1532 1533 1533 1533 1534 1534 1534 1535 1535 1536 1537 1538 1538 1539 1539
1516 1518 1519 1520 1521 1523 1525 1525 1524 1524 1524 1525 1526 1527 1527 1528 1529 1529 1529 1529 1529 1529 1530 1530 1530 1530 1530 1530 1530 1531 1531 1532 1532 1532 1533 1533 1534 1535 1536 1537 1537 1538
1516 1517 1518 1519 1520 1521 1522 1522 1522 1522 1523 1523 1524 1524 1525 1526 1526 1527 1527 1527 1527 1527 1528 1528 1528 1528 1528 1528 1528 1529 1529 1529 1530 1531 1531 1531 1532 1532 1533 1534 1535 1536
1515 1516 1516 1517 1518 1518 1519 1519 1519 1520 1521 1521 1522 1522 1523 1523 1524 1524 1524 1525 1525 1525 1525 1525 1526 1526 1527 1526 1527 1527 1527 1527 1528 1528 1529 1529 1529 1530 1530 1531 1532 1534
1514 1515 1515 1516 1517 1517 1518 1518 1518 1519 1519 1520 1520 1521 1521 1521 1522 1522 1523 1523 1523 1523 1523 1523 1524 1524 1525 1525 1525 1525 1525 1525 1525 1526 1526 1526 1527 1528 1528 1529 1530 1531
1513 1514 1515 1516 1516 1516 1517 1517 1517 1518 1518 1519 1519 1519 1519 1520 1520 1521 1521 1521 1522 1522 1522 1522 1522 1522 1523 1523 1523 1523 1523 1523 1523 1523 1523 1524 1525 1525 1526 1527 1527 1528
1513 1514 1514 1515 1515 1516 1516 1516 1517 1517 1517 1518 1518 1518 1518 1518 1519 1519 1519 1520 1520 1520 1520 1520 1521 1521 1521 1521 1521 1521 1521 1521 1520 1521 1521 1521 1522 1523 1524 1524 1525 1525
1513 1513 1514 1514 1514 1515 1515 1516 1516 1516 1517 1517 1517 1517 1517 1517 1518 1518 1518 1518 1519 1519 1519 1519 1519 1519 1519 1519 1519 1519 1518 1518 1518 1518 1518 1519 1520 1521 1521 1522 1523 1523
1512 1513 1513 1513 1514 1514 1515 1515 1515 1515 1516 1516 1516 1516 1516 1516 1517 1517 1517 1517 1517 1517 1518 1517 1517 1517 1517 1517 1517 1517 1516 1516 1516 1516 1516 1517 1517 1518 1519 1520 1521 1522
1511 1512 1512 1512 1513 1513 1513 1514 1514 1514 1514 1514 1515 1515 1515 1515 1515 1515 1515 1515 1516 1516 1516 1516 1515 1515 1515 1515 1515 1515 1515 1514 1514 1514 1514 1515 1515 1516 1517 1518 1520 1521
1510 1510 1511 1511 1512 1512 1512 1512 1512 1512 1513 1513 1513 1514 1514 1513 1513 1513 1513 1514 1514 1514 1514 1514 1514 1514 1514 1514 1514 1513 1513 1513 1512 1512 1512 1513 1514 1515 1516 1517 1518 1519
1509 1509 1509 1510 1510 1510 1510 1510 1511 1511 1511 1511 1512 1512 1512 1512 1512 1511 1512 1512 1512 1512 1512 1512 1512 1512 1512 1512 1512 1512 1511 1511 1511 1511 1511 1512 1512 1513 1514 1515 1516 1517
1507 1508 1508 1508 1509 1509 1509 1509 1509 1509 1509 1509 1510 1510 1510 1510 1510 1510 1510 1510 1510 1510 1510 1510 1510 1511 1510 1510 1510 1510 1510 1510 1510 1510 1511 1511 1512 1512 1513 1514 1515 1516
1505 1506 1506 1507 1507 1507 1507 1507 1508 1508 1508 1508 1508 1508 1508 1508 1508 1508 1508 1508 1508 1508 1508 1508 1509 1509 1509 1509 1509 1508 1509 1509 1509 1510 1510 1511 1511 1512 1512 1513 1513 1514